Location: Unspecified
(0.0000°N, 0.0000°E)
Time: 17:51:04
(UTC+00:00)

Vanguard 1 - Pass Details

Date: 10 October 2020
Orbit: 650 x 3833 km, 34.3° (Epoch: 26 October)

Event Time Altitude Azimuth Distance (km) Brightness Sun altitude
Rises 00:20:46 0° 340° (NNW) 3,012 - -79.2°
Reaches altitude 10° 00:25:02 10° 20° (NNE) 2,038 - -78.4°
Maximum altitude 00:26:11 11° 35° (NE) 2,003 - -78.1°
Drops below altitude 10° 00:27:21 10° 51° (NE) 2,095 - -77.9°
Sets 00:32:01 0° 89° (E) 3,312 - -76.9°
